Time,TemperatureF,DewpointF,PressureIn,WindDirection,WindDirectionDegrees,WindSpeedMPH,WindSpeedGustMPH,Humidity,HourlyPrecipIn,Conditions,Clouds,dailyrainin,SoftwareType,DateUTC
2013-09-27 00:03:00,74.0,58.7,29.83,SSE,154,6.0,10.0,59,0.00,FEW,FEW,0.00,WeatherDisplay:10.37,2013-09-27 05:03:00,
2013-09-27 00:09:00,74.0,58.7,29.83,South,171,7.0,9.0,59,0.00,FEW,FEW,0.00,WeatherDisplay:10.37,2013-09-27 05:09:00,
2013-09-27 00:15:00,73.8,58.5,29.83,SSE,152,7.0,9.0,59,0.00,FEW,FEW,0.00,WeatherDisplay:10.37,2013-09-27 05:15:00,
2013-09-27 00:21:00,73.6,58.3,29.83,SE,132,5.0,13.0,59,0.00,FEW,FEW,0.00,WeatherDisplay:10.37,2013-09-27 05:21:00,
2013-09-27 00:27:00,73.4,58.2,29.83,SE,129,8.0,15.0,59,0.00,FEW,FEW,0.00,WeatherDisplay:10.37,2013-09-27 05:27:00,
2013-09-27 00:33:00,73.4,58.2,29.83,SE,128,8.0,16.0,59,0.00,FEW,FEW,0.00,WeatherDisplay:10.37,2013-09-27 05:33:00,
2013-09-27 00:39:00,73.3,58.1,29.83,SSE,152,6.0,8.0,59,0.00,FEW,FEW,0.00,WeatherDisplay:10.37,2013-09-27 05:39:00,
2013-09-27 00:45:00,73.3,58.1,29.83,SSE,153,8.0,13.0,59,0.00,FEW,FEW,0.00,WeatherDisplay:10.37,2013-09-27 05:45:00,
2013-09-27 00:51:00,73.3,58.1,29.84,SSE,149,6.0,9.0,59,0.00,FEW,FEW,0.00,WeatherDisplay:10.37,2013-09-27 05:51:00,
2013-09-27 00:57:00,73.1,58.3,29.84,SSE,151,7.0,9.0,60,0.00,FEW,FEW,0.00,WeatherDisplay:10.37,2013-09-27 05:57:00,
2013-09-27 01:03:00,72.7,58.0,29.84,SSE,157,5.0,9.0,60,0.00,CLR,CLR,0.00,WeatherDisplay:10.37,2013-09-27 06:03:00,
2013-09-27 01:09:00,72.7,58.0,29.84,South,176,3.0,9.0,60,0.00,CLR,CLR,0.00,WeatherDisplay:10.37,2013-09-27 06:09:00,
2013-09-27 01:15:00,72.5,58.2,29.84,SSE,162,7.0,13.0,61,0.00,CLR,CLR,0.00,WeatherDisplay:10.37,2013-09-27 06:15:00,
2013-09-27 01:21:00,72.4,58.2,29.84,ESE,123,6.0,9.0,61,0.00,CLR,CLR,0.00,WeatherDisplay:10.37,2013-09-27 06:21:00,
2013-09-27 01:27:00,72.3,58.1,29.83,SE,145,6.0,9.0,61,0.00,CLR,CLR,0.00,WeatherDisplay:10.37,2013-09-27 06:27:00,
2013-09-27 01:33:00,72.4,58.2,29.83,SSE,162,7.0,10.0,61,0.00,CLR,CLR,0.00,WeatherDisplay:10.37,2013-09-27 06:33:00,
2013-09-27 01:39:00,72.2,58.0,29.84,SE,145,6.0,9.0,61,0.00,CLR,CLR,0.00,WeatherDisplay:10.37,2013-09-27 06:39:00,
2013-09-27 01:45:00,72.2,58.0,29.84,SE,144,7.0,12.0,61,0.00,CLR,CLR,0.00,WeatherDisplay:10.37,2013-09-27 06:45:00,
2013-09-27 01:51:00,72.2,58.0,29.84,ESE,117,9.0,13.0,61,0.00,CLR,CLR,0.00,WeatherDisplay:10.37,2013-09-27 06:51:00,
2013-09-27 01:57:00,72.0,57.8,29.84,ESE,120,6.0,9.0,61,0.00,CLR,CLR,0.00,WeatherDisplay:10.37,2013-09-27 06:57:00,
2013-09-27 02:03:00,72.0,57.8,29.84,SSE,160,7.0,12.0,61,0.00,SCT,SCT,0.00,WeatherDisplay:10.37,2013-09-27 07:03:00,
2013-09-27 02:09:00,72.0,57.8,29.84,SSE,158,7.0,9.0,61,0.00,SCT,SCT,0.00,WeatherDisplay:10.37,2013-09-27 07:09:00,
2013-09-27 02:15:00,71.8,57.6,29.84,SE,137,3.0,6.0,61,0.00,SCT,SCT,0.00,WeatherDisplay:10.37,2013-09-27 07:15:00,
2013-09-27 02:21:00,72.0,57.8,29.84,ESE,102,7.0,15.0,61,0.00,SCT,SCT,0.00,WeatherDisplay:10.37,2013-09-27 07:21:00,
2013-09-27 02:27:00,72.0,57.8,29.85,SSE,153,8.0,9.0,61,0.00,SCT,SCT,0.00,WeatherDisplay:10.37,2013-09-27 07:27:00,
2013-09-27 02:33:00,72.0,57.8,29.85,SE,135,6.0,14.0,61,0.00,SCT,SCT,0.00,WeatherDisplay:10.37,2013-09-27 07:33:00,
2013-09-27 02:39:00,72.0,57.8,29.85,SSE,150,8.0,13.0,61,0.00,SCT,SCT,0.00,WeatherDisplay:10.37,2013-09-27 07:39:00,
2013-09-27 02:45:00,72.0,57.8,29.85,SSE,150,9.0,13.0,61,0.00,SCT,SCT,0.00,WeatherDisplay:10.37,2013-09-27 07:45:00,
2013-09-27 02:51:00,72.0,57.8,29.85,SSE,168,12.0,21.0,61,0.00,SCT,SCT,0.00,WeatherDisplay:10.37,2013-09-27 07:51:00,
2013-09-27 02:57:00,71.8,57.6,29.85,South,174,8.0,12.0,61,0.00,SCT,SCT,0.00,WeatherDisplay:10.37,2013-09-27 07:57:00,
2013-09-27 03:03:00,71.6,57.4,29.85,SSE,159,7.0,9.0,61,0.00,SCT,SCT,0.00,WeatherDisplay:10.37,2013-09-27 08:03:00,
2013-09-27 03:09:00,71.3,57.1,29.85,SE,140,8.0,14.0,61,0.00,SCT,SCT,0.00,WeatherDisplay:10.37,2013-09-27 08:09:00,
2013-09-27 03:15:00,71.1,57.0,29.84,SE,126,8.0,12.0,61,0.00,SCT,SCT,0.00,WeatherDisplay:10.37,2013-09-27 08:15:00,
2013-09-27 03:21:00,71.1,57.4,29.84,SE,128,9.0,12.0,62,0.00,SCT,SCT,0.00,WeatherDisplay:10.37,2013-09-27 08:21:00,
2013-09-27 03:27:00,70.9,57.2,29.85,SSE,151,9.0,12.0,62,0.00,SCT,SCT,0.00,WeatherDisplay:10.37,2013-09-27 08:27:00,
2013-09-27 03:33:00,70.7,57.0,29.85,South,172,8.0,10.0,62,0.00,SCT,SCT,0.00,WeatherDisplay:10.37,2013-09-27 08:33:00,
2013-09-27 03:39:00,70.4,57.2,29.85,SSE,159,5.0,10.0,63,0.00,SCT,SCT,0.00,WeatherDisplay:10.37,2013-09-27 08:39:00,
2013-09-27 03:45:00,70.2,57.0,29.85,SSE,153,6.0,10.0,63,0.00,SCT,SCT,0.00,WeatherDisplay:10.37,2013-09-27 08:45:00,
2013-09-27 03:51:00,70.0,57.2,29.85,SE,135,7.0,9.0,64,0.00,SCT,SCT,0.00,WeatherDisplay:10.37,2013-09-27 08:51:00,
2013-09-27 03:57:00,70.0,57.2,29.85,SE,141,7.0,13.0,64,0.00,SCT,SCT,0.00,WeatherDisplay:10.37,2013-09-27 08:57:00,
2013-09-27 04:03:00,69.8,57.0,29.84,SE,146,5.0,10.0,64,0.00,SCT,SCT,0.00,WeatherDisplay:10.37,2013-09-27 09:03:00,
2013-09-27 04:09:00,69.7,57.4,29.84,SSE,158,6.0,9.0,65,0.00,SCT,SCT,0.00,WeatherDisplay:10.37,2013-09-27 09:09:00,
2013-09-27 04:15:00,69.5,57.2,29.84,SSE,150,9.0,13.0,65,0.00,SCT,SCT,0.00,WeatherDisplay:10.37,2013-09-27 09:15:00,
2013-09-27 04:21:00,69.3,57.0,29.84,South,171,6.0,14.0,65,0.00,SCT,SCT,0.00,WeatherDisplay:10.37,2013-09-27 09:21:00,
2013-09-27 04:27:00,69.3,57.0,29.84,SSE,165,8.0,13.0,65,0.00,SCT,SCT,0.00,WeatherDisplay:10.37,2013-09-27 09:27:00,
2013-09-27 04:33:00,69.3,57.0,29.84,SSE,165,7.0,9.0,65,0.00,SCT,SCT,0.00,WeatherDisplay:10.37,2013-09-27 09:33:00,
2013-09-27 04:39:00,69.1,56.8,29.84,SSE,152,9.0,12.0,65,0.00,SCT,SCT,0.00,WeatherDisplay:10.37,2013-09-27 09:39:00,
2013-09-27 04:45:00,68.9,57.0,29.84,SSE,155,5.0,8.0,66,0.00,SCT,SCT,0.00,WeatherDisplay:10.37,2013-09-27 09:45:00,
2013-09-27 04:51:00,68.9,57.0,29.84,SSE,159,6.0,9.0,66,0.00,SCT,SCT,0.00,WeatherDisplay:10.37,2013-09-27 09:51:00,
2013-09-27 04:57:00,68.8,56.9,29.84,SSE,152,7.0,9.0,66,0.00,SCT,SCT,0.00,WeatherDisplay:10.37,2013-09-27 09:57:00,
2013-09-27 05:03:00,68.5,57.1,29.85,SSE,165,6.0,13.0,67,0.00,FEW,FEW,0.00,WeatherDisplay:10.37,2013-09-27 10:03:00,
2013-09-27 05:09:00,68.3,56.9,29.85,SSE,155,5.0,6.0,67,0.00,FEW,FEW,0.00,WeatherDisplay:10.37,2013-09-27 10:09:00,
2013-09-27 05:15:00,68.2,56.8,29.85,South,178,7.0,10.0,67,0.00,FEW,FEW,0.00,WeatherDisplay:10.37,2013-09-27 10:15:00,
2013-09-27 05:24:00,68.2,56.8,29.85,SE,141,6.0,12.0,67,0.00,FEW,FEW,0.00,WeatherDisplay:10.37,2013-09-27 10:24:00,
2013-09-27 05:30:00,67.9,56.5,29.86,SE,142,3.0,9.0,67,0.00,FEW,FEW,0.00,WeatherDisplay:10.37,2013-09-27 10:30:00,
2013-09-27 05:36:00,67.9,56.9,29.86,SSE,159,2.0,6.0,68,0.00,FEW,FEW,0.00,WeatherDisplay:10.37,2013-09-27 10:36:00,
2013-09-27 05:42:00,67.7,56.7,29.86,SE,130,5.0,9.0,68,0.00,FEW,FEW,0.00,WeatherDisplay:10.37,2013-09-27 10:42:00,
2013-09-27 05:48:00,67.4,56.8,29.86,ESE,102,3.0,6.0,69,0.00,FEW,FEW,0.00,WeatherDisplay:10.37,2013-09-27 10:48:00,
2013-09-27 05:54:00,67.3,56.7,29.86,SE,125,3.0,3.0,69,0.00,FEW,FEW,0.00,WeatherDisplay:10.37,2013-09-27 10:54:00,
2013-09-27 06:00:00,67.3,57.1,29.86,ESE,119,5.0,8.0,70,0.00,FEW,FEW,0.00,WeatherDisplay:10.37,2013-09-27 11:00:00,
2013-09-27 06:06:00,67.3,57.1,29.86,SE,144,2.0,7.0,70,0.00,SCT,SCT,0.00,WeatherDisplay:10.37,2013-09-27 11:06:00,
2013-09-27 06:12:00,67.0,56.9,29.86,ESE,122,5.0,7.0,70,0.00,SCT,SCT,0.00,WeatherDisplay:10.37,2013-09-27 11:12:00,
2013-09-27 06:18:00,66.8,57.1,29.86,SSE,149,3.0,7.0,71,0.00,SCT,SCT,0.00,WeatherDisplay:10.37,2013-09-27 11:18:00,
2013-09-27 06:24:00,66.8,57.1,29.86,SSE,167,5.0,9.0,71,0.00,SCT,SCT,0.00,WeatherDisplay:10.37,2013-09-27 11:24:00,
2013-09-27 06:30:00,66.8,57.1,29.86,SSE,166,6.0,9.0,71,0.00,SCT,SCT,0.00,WeatherDisplay:10.37,2013-09-27 11:30:00,
2013-09-27 06:36:00,66.8,57.1,29.86,South,179,3.0,8.0,71,0.00,SCT,SCT,0.00,WeatherDisplay:10.37,2013-09-27 11:36:00,
2013-09-27 06:42:00,66.6,57.3,29.87,SSE,155,5.0,8.0,72,0.00,SCT,SCT,0.00,WeatherDisplay:10.37,2013-09-27 11:42:00,
2013-09-27 06:48:00,66.4,57.1,29.87,SSE,162,5.0,7.0,72,0.00,SCT,SCT,0.00,WeatherDisplay:10.37,2013-09-27 11:48:00,
2013-09-27 06:54:00,66.4,57.1,29.87,SSE,161,5.0,8.0,72,0.00,SCT,SCT,0.00,WeatherDisplay:10.37,2013-09-27 11:54:00,
2013-09-27 07:00:00,66.2,56.9,29.87,SSE,154,7.0,9.0,72,0.00,SCT,SCT,0.00,WeatherDisplay:10.37,2013-09-27 12:00:00,
2013-09-27 07:06:00,66.2,56.9,29.88,SSE,156,6.0,8.0,72,0.00,SCT,SCT,0.00,WeatherDisplay:10.37,2013-09-27 12:06:00,
2013-09-27 07:12:00,66.4,57.1,29.88,SSE,161,6.0,9.0,72,0.00,SCT,SCT,0.00,WeatherDisplay:10.37,2013-09-27 12:12:00,
2013-09-27 07:18:00,66.4,57.1,29.88,South,169,2.0,9.0,72,0.00,SCT,SCT,0.00,WeatherDisplay:10.37,2013-09-27 12:18:00,
2013-09-27 07:24:00,66.4,57.1,29.88,SSE,158,8.0,10.0,72,0.00,SCT,SCT,0.00,WeatherDisplay:10.37,2013-09-27 12:24:00,
2013-09-27 07:30:00,66.4,57.1,29.87,SSE,157,5.0,5.0,72,0.00,SCT,SCT,0.00,WeatherDisplay:10.37,2013-09-27 12:30:00,
2013-09-27 07:36:00,66.4,57.1,29.87,SSE,157,5.0,5.0,72,0.00,SCT,SCT,0.00,WeatherDisplay:10.37,2013-09-27 12:36:00,
2013-09-27 07:42:00,66.4,57.1,29.87,SSE,156,5.0,5.0,72,0.00,SCT,SCT,0.00,WeatherDisplay:10.37,2013-09-27 12:42:00,
2013-09-27 07:48:00,66.5,57.2,29.88,SSE,164,12.0,18.0,72,0.00,SCT,SCT,0.00,WeatherDisplay:10.37,2013-09-27 12:48:00,
2013-09-27 07:54:00,66.6,57.3,29.88,South,170,5.0,7.0,72,0.00,SCT,SCT,0.00,WeatherDisplay:10.37,2013-09-27 12:54:00,
2013-09-27 08:00:00,66.6,57.3,29.88,SE,136,3.0,5.0,72,0.00,SCT,SCT,0.00,WeatherDisplay:10.37,2013-09-27 13:00:00,
2013-09-27 08:06:00,66.4,57.8,29.89,East,80,3.0,4.0,74,0.00,FEW,FEW,0.00,WeatherDisplay:10.37,2013-09-27 13:06:00,
2013-09-27 08:12:00,66.4,57.8,29.88,SSE,149,3.0,5.0,74,0.00,FEW,FEW,0.00,WeatherDisplay:10.37,2013-09-27 13:12:00,
2013-09-27 08:18:00,66.4,57.8,29.88,ESE,110,3.0,4.0,74,0.00,FEW,FEW,0.00,WeatherDisplay:10.37,2013-09-27 13:18:00,
2013-09-27 08:24:00,66.4,57.8,29.88,ESE,108,3.0,9.0,74,0.00,FEW,FEW,0.00,WeatherDisplay:10.37,2013-09-27 13:24:00,
2013-09-27 08:30:00,66.6,58.0,29.88,SSE,161,3.0,9.0,74,0.00,FEW,FEW,0.00,WeatherDisplay:10.37,2013-09-27 13:30:00,
2013-09-27 08:36:00,66.7,58.2,29.88,SSE,168,5.0,7.0,74,0.00,FEW,FEW,0.00,WeatherDisplay:10.37,2013-09-27 13:36:00,
2013-09-27 08:42:00,67.0,58.4,29.88,SSE,148,2.0,6.0,74,0.00,FEW,FEW,0.00,WeatherDisplay:10.37,2013-09-27 13:42:00,
2013-09-27 08:48:00,67.3,58.7,29.88,SE,128,3.0,8.0,74,0.00,FEW,FEW,0.00,WeatherDisplay:10.37,2013-09-27 13:48:00,
2013-09-27 08:54:00,67.7,58.7,29.88,ESE,122,8.0,9.0,73,0.00,FEW,FEW,0.00,WeatherDisplay:10.37,2013-09-27 13:54:00,
2013-09-27 09:00:00,67.9,58.6,29.88,ESE,119,5.0,13.0,72,0.00,FEW,FEW,0.00,WeatherDisplay:10.37,2013-09-27 14:00:00,
2013-09-27 09:06:00,68.5,58.7,29.89,SE,126,9.0,16.0,71,0.00,SCT,SCT,0.00,WeatherDisplay:10.37,2013-09-27 14:06:00,
2013-09-27 09:12:00,68.8,58.6,29.89,SE,142,6.0,13.0,70,0.00,SCT,SCT,0.00,WeatherDisplay:10.37,2013-09-27 14:12:00,
2013-09-27 09:18:00,69.4,59.2,29.89,SSE,150,7.0,9.0,70,0.00,SCT,SCT,0.00,WeatherDisplay:10.37,2013-09-27 14:18:00,
2013-09-27 09:24:00,69.8,59.1,29.89,SSE,167,6.0,10.0,69,0.00,SCT,SCT,0.00,WeatherDisplay:10.37,2013-09-27 14:24:00,
2013-09-27 09:30:00,70.4,59.3,29.89,SE,139,5.0,14.0,68,0.00,SCT,SCT,0.00,WeatherDisplay:10.37,2013-09-27 14:30:00,
2013-09-27 09:36:00,70.7,59.6,29.89,ESE,120,6.0,9.0,68,0.00,SCT,SCT,0.00,WeatherDisplay:10.37,2013-09-27 14:36:00,
2013-09-27 09:42:00,71.5,59.6,29.89,SE,128,13.0,17.0,66,0.00,SCT,SCT,0.00,WeatherDisplay:10.37,2013-09-27 14:42:00,
2013-09-27 09:48:00,72.3,59.9,29.89,South,181,8.0,12.0,65,0.00,SCT,SCT,0.00,WeatherDisplay:10.37,2013-09-27 14:48:00,
2013-09-27 09:54:00,72.7,59.8,29.89,South,181,9.0,13.0,64,0.00,SCT,SCT,0.00,WeatherDisplay:10.37,2013-09-27 14:54:00,
2013-09-27 10:00:00,73.1,59.7,29.89,SSE,159,10.0,17.0,63,0.00,SCT,SCT,0.00,WeatherDisplay:10.37,2013-09-27 15:00:00,
2013-09-27 10:06:00,73.6,60.6,29.89,SSE,165,12.0,16.0,64,0.00,FEW,FEW,0.00,WeatherDisplay:10.37,2013-09-27 15:06:00,
2013-09-27 10:12:00,74.1,61.1,29.89,SE,143,9.0,13.0,64,0.00,FEW,FEW,0.00,WeatherDisplay:10.37,2013-09-27 15:12:00,
2013-09-27 10:18:00,74.3,61.3,29.89,SSE,167,9.0,15.0,64,0.00,FEW,FEW,0.00,WeatherDisplay:10.37,2013-09-27 15:18:00,
2013-09-27 10:24:00,74.8,61.4,29.90,SSW,200,8.0,13.0,63,0.00,FEW,FEW,0.00,WeatherDisplay:10.37,2013-09-27 15:24:00,
2013-09-27 10:30:00,75.1,61.6,29.90,SSW,201,9.0,18.0,63,0.00,FEW,FEW,0.00,WeatherDisplay:10.37,2013-09-27 15:30:00,
2013-09-27 10:36:00,75.7,62.2,29.89,South,185,9.0,13.0,63,0.00,FEW,FEW,0.00,WeatherDisplay:10.37,2013-09-27 15:36:00,
2013-09-27 10:42:00,76.0,62.5,29.89,South,189,12.0,17.0,63,0.00,FEW,FEW,0.00,WeatherDisplay:10.37,2013-09-27 15:42:00,
2013-09-27 10:48:00,76.5,62.9,29.89,South,177,13.0,13.0,63,0.00,FEW,FEW,0.00,WeatherDisplay:10.37,2013-09-27 15:48:00,
2013-09-27 10:54:00,77.1,63.5,29.89,South,182,6.0,13.0,63,0.00,FEW,FEW,0.00,WeatherDisplay:10.37,2013-09-27 15:54:00,
2013-09-27 11:00:00,77.2,63.1,29.89,SSW,208,12.0,15.0,62,0.00,FEW,FEW,0.00,WeatherDisplay:10.37,2013-09-27 16:00:00,
2013-09-27 11:06:00,77.7,63.1,29.89,South,190,12.0,14.0,61,0.00,FEW,FEW,0.00,WeatherDisplay:10.37,2013-09-27 16:06:00,
2013-09-27 11:12:00,78.1,63.5,29.89,SSE,157,15.0,20.0,61,0.00,FEW,FEW,0.00,WeatherDisplay:10.37,2013-09-27 16:12:00,
2013-09-27 11:18:00,78.7,63.6,29.89,SSE,154,7.0,13.0,60,0.00,FEW,FEW,0.00,WeatherDisplay:10.37,2013-09-27 16:18:00,
2013-09-27 11:24:00,79.4,63.3,29.89,SSE,162,14.0,19.0,58,0.00,FEW,FEW,0.00,WeatherDisplay:10.37,2013-09-27 16:24:00,
2013-09-27 11:30:00,79.4,63.3,29.89,SSE,157,17.0,19.0,58,0.00,FEW,FEW,0.00,WeatherDisplay:10.37,2013-09-27 16:30:00,
2013-09-27 11:36:00,79.9,63.3,29.89,SSE,168,9.0,15.0,57,0.00,FEW,FEW,0.00,WeatherDisplay:10.37,2013-09-27 16:36:00,
2013-09-27 11:42:00,80.5,63.3,29.88,SSE,166,13.0,20.0,56,0.00,FEW,FEW,0.00,WeatherDisplay:10.37,2013-09-27 16:42:00,
2013-09-27 11:48:00,81.2,64.0,29.88,South,172,14.0,23.0,56,0.00,FEW,FEW,0.00,WeatherDisplay:10.37,2013-09-27 16:48:00,
2013-09-27 11:54:00,81.0,63.3,29.88,SSE,156,15.0,17.0,55,0.00,FEW,FEW,0.00,WeatherDisplay:10.37,2013-09-27 16:54:00,
2013-09-27 12:00:00,81.9,64.2,29.88,SSE,163,8.0,9.0,55,0.00,FEW,FEW,0.00,WeatherDisplay:10.37,2013-09-27 17:00:00,
2013-09-27 12:06:00,81.7,63.4,29.88,South,180,14.0,21.0,54,0.00,SCT,SCT,0.00,WeatherDisplay:10.37,2013-09-27 17:06:00,
2013-09-27 12:12:00,82.0,63.7,29.88,SSW,192,15.0,20.0,54,0.00,SCT,SCT,0.00,WeatherDisplay:10.37,2013-09-27 17:12:00,
2013-09-27 12:18:00,81.9,63.1,29.87,South,170,14.0,16.0,53,0.00,SCT,SCT,0.00,WeatherDisplay:10.37,2013-09-27 17:18:00,
2013-09-27 12:24:00,82.4,63.5,29.87,SE,144,14.0,22.0,53,0.00,SCT,SCT,0.00,WeatherDisplay:10.37,2013-09-27 17:24:00,
2013-09-27 12:30:00,82.5,63.7,29.87,SSE,158,9.0,20.0,53,0.00,SCT,SCT,0.00,WeatherDisplay:10.37,2013-09-27 17:30:00,
2013-09-27 12:36:00,82.9,63.4,29.87,South,181,9.0,19.0,52,0.00,SCT,SCT,0.00,WeatherDisplay:10.37,2013-09-27 17:36:00,
2013-09-27 12:42:00,82.6,63.2,29.87,SW,214,14.0,18.0,52,0.00,SCT,SCT,0.00,WeatherDisplay:10.37,2013-09-27 17:42:00,
2013-09-27 12:48:00,83.4,63.4,29.86,SSW,193,13.0,21.0,51,0.00,SCT,SCT,0.00,WeatherDisplay:10.37,2013-09-27 17:48:00,
2013-09-27 12:54:00,83.2,63.2,29.86,South,178,13.0,22.0,51,0.00,SCT,SCT,0.00,WeatherDisplay:10.37,2013-09-27 17:54:00,
2013-09-27 13:00:00,83.3,63.3,29.86,SSE,155,12.0,13.0,51,0.00,SCT,SCT,0.00,WeatherDisplay:10.37,2013-09-27 18:00:00,
2013-09-27 13:06:00,84.8,63.5,29.86,SSE,151,8.0,13.0,49,0.00,SCT,SCT,0.00,WeatherDisplay:10.37,2013-09-27 18:06:00,
2013-09-27 13:12:00,85.0,62.5,29.86,SSE,149,10.0,22.0,47,0.00,SCT,SCT,0.00,WeatherDisplay:10.37,2013-09-27 18:12:00,
2013-09-27 13:18:00,84.8,61.7,29.85,SSW,197,10.0,15.0,46,0.00,SCT,SCT,0.00,WeatherDisplay:10.37,2013-09-27 18:18:00,
2013-09-27 13:24:00,85.0,62.5,29.85,South,187,12.0,16.0,47,0.00,SCT,SCT,0.00,WeatherDisplay:10.37,2013-09-27 18:24:00,
2013-09-27 13:30:00,85.3,62.2,29.86,South,180,13.0,15.0,46,0.00,SCT,SCT,0.00,WeatherDisplay:10.37,2013-09-27 18:30:00,
2013-09-27 13:36:00,85.0,61.9,29.86,SSW,192,13.0,22.0,46,0.00,SCT,SCT,0.00,WeatherDisplay:10.37,2013-09-27 18:36:00,
2013-09-27 13:42:00,85.3,61.5,29.85,SSE,162,13.0,20.0,45,0.00,SCT,SCT,0.00,WeatherDisplay:10.37,2013-09-27 18:42:00,
2013-09-27 13:48:00,84.8,61.1,29.85,SSE,151,10.0,17.0,45,0.00,SCT,SCT,0.00,WeatherDisplay:10.37,2013-09-27 18:48:00,
2013-09-27 13:54:00,85.5,61.7,29.84,SSE,148,17.0,19.0,45,0.00,SCT,SCT,0.00,WeatherDisplay:10.37,2013-09-27 18:54:00,
2013-09-27 14:00:00,84.8,62.4,29.84,SSE,149,12.0,16.0,47,0.00,SCT,SCT,0.00,WeatherDisplay:10.37,2013-09-27 19:00:00,
2013-09-27 14:06:00,86.0,62.1,29.84,SE,135,10.0,20.0,45,0.00,SCT,SCT,0.00,WeatherDisplay:10.37,2013-09-27 19:06:00,
2013-09-27 14:12:00,85.9,61.5,29.84,SSE,156,9.0,22.0,44,0.00,SCT,SCT,0.00,WeatherDisplay:10.37,2013-09-27 19:12:00,
2013-09-27 14:18:00,86.1,61.0,29.83,South,171,16.0,19.0,43,0.00,SCT,SCT,0.00,WeatherDisplay:10.37,2013-09-27 19:18:00,
2013-09-27 14:24:00,86.7,62.1,29.83,SSW,204,13.0,16.0,44,0.00,SCT,SCT,0.00,WeatherDisplay:10.37,2013-09-27 19:24:00,
2013-09-27 14:30:00,85.9,62.1,29.83,SSE,166,12.0,14.0,45,0.00,SCT,SCT,0.00,WeatherDisplay:10.37,2013-09-27 19:30:00,
2013-09-27 14:36:00,87.4,62.8,29.83,SSE,151,7.0,10.0,44,0.00,SCT,SCT,0.00,WeatherDisplay:10.37,2013-09-27 19:36:00,
2013-09-27 14:42:00,86.4,61.2,29.82,SSE,156,12.0,18.0,43,0.00,SCT,SCT,0.00,WeatherDisplay:10.37,2013-09-27 19:42:00,
2013-09-27 14:48:00,86.9,61.7,29.82,SSE,149,10.0,13.0,43,0.00,SCT,SCT,0.00,WeatherDisplay:10.37,2013-09-27 19:48:00,
2013-09-27 14:54:00,86.9,61.7,29.82,SSE,159,8.0,9.0,43,0.00,SCT,SCT,0.00,WeatherDisplay:10.37,2013-09-27 19:54:00,
2013-09-27 15:00:00,87.0,62.4,29.82,ESE,116,10.0,21.0,44,0.00,SCT,SCT,0.00,WeatherDisplay:10.37,2013-09-27 20:00:00,
2013-09-27 15:06:00,86.8,62.3,29.81,ESE,115,8.0,20.0,44,0.00,SCT,SCT,0.00,WeatherDisplay:10.37,2013-09-27 20:06:00,
2013-09-27 15:12:00,86.8,62.3,29.81,South,178,10.0,21.0,44,0.00,SCT,SCT,0.00,WeatherDisplay:10.37,2013-09-27 20:12:00,
2013-09-27 15:18:00,86.4,61.9,29.81,SSE,151,8.0,20.0,44,0.00,SCT,SCT,0.00,WeatherDisplay:10.37,2013-09-27 20:18:00,
2013-09-27 15:24:00,86.7,61.6,29.81,SSE,155,10.0,14.0,43,0.00,SCT,SCT,0.00,WeatherDisplay:10.37,2013-09-27 20:24:00,
2013-09-27 15:30:00,87.0,62.4,29.81,SSE,154,8.0,9.0,44,0.00,SCT,SCT,0.00,WeatherDisplay:10.37,2013-09-27 20:30:00,
2013-09-27 15:36:00,86.8,61.7,29.81,South,172,21.0,30.0,43,0.00,SCT,SCT,0.00,WeatherDisplay:10.37,2013-09-27 20:36:00,
2013-09-27 15:42:00,86.8,61.6,29.81,South,177,9.0,16.0,43,0.00,SCT,SCT,0.00,WeatherDisplay:10.37,2013-09-27 20:42:00,
2013-09-27 15:48:00,86.8,62.3,29.81,SSE,150,9.0,14.0,44,0.00,SCT,SCT,0.00,WeatherDisplay:10.37,2013-09-27 20:48:00,
2013-09-27 15:54:00,86.8,60.3,29.80,SE,142,9.0,19.0,41,0.00,SCT,SCT,0.00,WeatherDisplay:10.37,2013-09-27 20:54:00,
2013-09-27 16:00:00,87.3,61.4,29.80,SSE,162,9.0,20.0,42,0.00,SCT,SCT,0.00,WeatherDisplay:10.37,2013-09-27 21:00:00,
2013-09-27 16:06:00,86.3,60.5,29.80,SSE,154,21.0,28.0,42,0.00,SCT,SCT,0.00,WeatherDisplay:10.37,2013-09-27 21:06:00,
2013-09-27 16:12:00,86.2,60.4,29.80,SSE,159,12.0,20.0,42,0.00,SCT,SCT,0.00,WeatherDisplay:10.37,2013-09-27 21:12:00,
2013-09-27 16:18:00,86.7,60.9,29.80,South,183,8.0,22.0,42,0.00,SCT,SCT,0.00,WeatherDisplay:10.37,2013-09-27 21:18:00,
2013-09-27 16:24:00,86.3,59.8,29.80,South,190,12.0,16.0,41,0.00,SCT,SCT,0.00,WeatherDisplay:10.37,2013-09-27 21:24:00,
2013-09-27 16:30:00,85.8,60.1,29.80,SSE,150,13.0,25.0,42,0.00,SCT,SCT,0.00,WeatherDisplay:10.37,2013-09-27 21:30:00,
2013-09-27 16:36:00,85.9,60.1,29.80,SSE,156,9.0,9.0,42,0.00,SCT,SCT,0.00,WeatherDisplay:10.37,2013-09-27 21:36:00,
2013-09-27 16:42:00,84.8,59.8,29.80,SSE,160,14.0,18.0,43,0.00,SCT,SCT,0.00,WeatherDisplay:10.37,2013-09-27 21:42:00,
2013-09-27 16:48:00,85.1,60.1,29.80,SSE,158,13.0,19.0,43,0.00,SCT,SCT,0.00,WeatherDisplay:10.37,2013-09-27 21:48:00,
2013-09-27 16:54:00,84.6,60.9,29.80,SSE,153,5.0,14.0,45,0.00,SCT,SCT,0.00,WeatherDisplay:10.37,2013-09-27 21:54:00,
2013-09-27 17:00:00,84.3,60.6,29.80,SSE,155,8.0,10.0,45,0.00,SCT,SCT,0.00,WeatherDisplay:10.37,2013-09-27 22:00:00,
2013-09-27 17:06:00,84.4,60.7,29.80,SSE,162,9.0,20.0,45,0.00,SCT,SCT,0.00,WeatherDisplay:10.37,2013-09-27 22:06:00,
2013-09-27 17:12:00,84.6,60.9,29.80,SSE,148,5.0,9.0,45,0.00,SCT,SCT,0.00,WeatherDisplay:10.37,2013-09-27 22:12:00,
2013-09-27 17:18:00,84.4,60.7,29.80,SE,144,8.0,9.0,45,0.00,SCT,SCT,0.00,WeatherDisplay:10.37,2013-09-27 22:18:00,
2013-09-27 17:24:00,84.5,60.8,29.80,SSE,160,12.0,22.0,45,0.00,SCT,SCT,0.00,WeatherDisplay:10.37,2013-09-27 22:24:00,
2013-09-27 17:30:00,84.6,60.3,29.80,SSE,154,13.0,17.0,44,0.00,SCT,SCT,0.00,WeatherDisplay:10.37,2013-09-27 22:30:00,
2013-09-27 17:36:00,84.6,60.2,29.80,SSE,158,14.0,17.0,44,0.00,SCT,SCT,0.00,WeatherDisplay:10.37,2013-09-27 22:36:00,
2013-09-27 17:42:00,84.4,60.1,29.80,South,187,10.0,14.0,44,0.00,SCT,SCT,0.00,WeatherDisplay:10.37,2013-09-27 22:42:00,
2013-09-27 17:48:00,84.2,59.9,29.80,SE,127,9.0,17.0,44,0.00,SCT,SCT,0.00,WeatherDisplay:10.37,2013-09-27 22:48:00,
2013-09-27 17:54:00,83.9,60.9,29.80,SE,128,10.0,16.0,46,0.00,SCT,SCT,0.00,WeatherDisplay:10.37,2013-09-27 22:54:00,
2013-09-27 18:00:00,83.5,60.5,29.80,SSE,157,8.0,16.0,46,0.00,SCT,SCT,0.00,WeatherDisplay:10.37,2013-09-27 23:00:00,
2013-09-27 18:06:00,83.0,60.7,29.80,South,177,8.0,13.0,47,0.00,SCT,SCT,0.00,WeatherDisplay:10.37,2013-09-27 23:06:00,
2013-09-27 18:12:00,82.3,60.1,29.80,SE,134,10.0,19.0,47,0.00,SCT,SCT,0.00,WeatherDisplay:10.37,2013-09-27 23:12:00,
2013-09-27 18:18:00,82.3,60.6,29.80,SE,137,7.0,10.0,48,0.00,SCT,SCT,0.00,WeatherDisplay:10.37,2013-09-27 23:18:00,
2013-09-27 18:24:00,82.1,60.4,29.80,ESE,112,6.0,9.0,48,0.00,SCT,SCT,0.00,WeatherDisplay:10.37,2013-09-27 23:24:00,
2013-09-27 18:30:00,82.1,60.5,29.79,ESE,110,8.0,10.0,48,0.00,SCT,SCT,0.00,WeatherDisplay:10.37,2013-09-27 23:30:00,
2013-09-27 18:36:00,82.1,60.4,29.79,ESE,109,5.0,13.0,48,0.00,SCT,SCT,0.00,WeatherDisplay:10.37,2013-09-27 23:36:00,
2013-09-27 18:42:00,81.9,60.2,29.79,ESE,122,7.0,10.0,48,0.00,SCT,SCT,0.00,WeatherDisplay:10.37,2013-09-27 23:42:00,
2013-09-27 18:48:00,81.5,59.9,29.79,ESE,113,6.0,14.0,48,0.00,SCT,SCT,0.00,WeatherDisplay:10.37,2013-09-27 23:48:00,
2013-09-27 18:54:00,81.4,59.8,29.79,SE,124,7.0,14.0,48,0.00,SCT,SCT,0.00,WeatherDisplay:10.37,2013-09-27 23:54:00,
2013-09-27 19:00:00,81.2,59.6,29.79,ESE,105,6.0,9.0,48,0.00,SCT,SCT,0.00,WeatherDisplay:10.37,2013-09-28 00:00:00,
2013-09-27 19:06:00,80.8,59.2,29.78,East,90,7.0,14.0,48,0.00,SCT,SCT,0.00,WeatherDisplay:10.37,2013-09-28 00:06:00,
2013-09-27 19:12:00,80.5,59.0,29.78,ESE,116,7.0,9.0,48,0.00,SCT,SCT,0.00,WeatherDisplay:10.37,2013-09-28 00:12:00,
2013-09-27 19:18:00,80.3,59.4,29.78,SE,131,7.0,8.0,49,0.00,SCT,SCT,0.00,WeatherDisplay:10.37,2013-09-28 00:18:00,
2013-09-27 19:24:00,79.9,59.0,29.78,ESE,120,6.0,10.0,49,0.00,SCT,SCT,0.00,WeatherDisplay:10.37,2013-09-28 00:24:00,
2013-09-27 19:30:00,79.6,59.3,29.78,SSE,152,6.0,9.0,50,0.00,SCT,SCT,0.00,WeatherDisplay:10.37,2013-09-28 00:30:00,
2013-09-27 19:36:00,79.3,59.6,29.78,SE,124,5.0,9.0,51,0.00,SCT,SCT,0.00,WeatherDisplay:10.37,2013-09-28 00:36:00,
2013-09-27 19:42:00,79.0,59.3,29.77,SE,124,5.0,7.0,51,0.00,SCT,SCT,0.00,WeatherDisplay:10.37,2013-09-28 00:42:00,
2013-09-27 19:48:00,78.7,59.1,29.77,SE,127,6.0,8.0,51,0.00,SCT,SCT,0.00,WeatherDisplay:10.37,2013-09-28 00:48:00,
2013-09-27 19:54:00,78.5,58.8,29.77,SE,143,6.0,9.0,51,0.00,SCT,SCT,0.00,WeatherDisplay:10.37,2013-09-28 00:54:00,
2013-09-27 20:00:00,78.1,59.0,29.77,SE,124,7.0,10.0,52,0.00,SCT,SCT,0.00,WeatherDisplay:10.37,2013-09-28 01:00:00,
2013-09-27 20:06:00,77.8,58.8,29.78,ESE,102,5.0,7.0,52,0.00,SCT,SCT,0.00,WeatherDisplay:10.37,2013-09-28 01:06:00,
2013-09-27 20:12:00,77.8,58.7,29.77,ESE,111,6.0,10.0,52,0.00,SCT,SCT,0.00,WeatherDisplay:10.37,2013-09-28 01:12:00,
2013-09-27 20:18:00,77.4,58.9,29.77,East,100,6.0,8.0,53,0.00,SCT,SCT,0.00,WeatherDisplay:10.37,2013-09-28 01:18:00,
2013-09-27 20:24:00,77.2,58.7,29.78,ESE,113,3.0,7.0,53,0.00,SCT,SCT,0.00,WeatherDisplay:10.37,2013-09-28 01:24:00,
2013-09-27 20:30:00,76.9,58.4,29.78,SE,124,5.0,6.0,53,0.00,SCT,SCT,0.00,WeatherDisplay:10.37,2013-09-28 01:30:00,
2013-09-27 20:36:00,76.9,58.4,29.78,ESE,112,6.0,7.0,53,0.00,SCT,SCT,0.00,WeatherDisplay:10.37,2013-09-28 01:36:00,
2013-09-27 20:42:00,76.7,58.8,29.79,SSE,156,5.0,8.0,54,0.00,SCT,SCT,0.00,WeatherDisplay:10.37,2013-09-28 01:42:00,
2013-09-27 20:48:00,76.3,58.5,29.79,SSE,151,3.0,5.0,54,0.00,SCT,SCT,0.00,WeatherDisplay:10.37,2013-09-28 01:48:00,
2013-09-27 20:54:00,76.1,58.2,29.80,SSE,151,5.0,12.0,54,0.00,SCT,SCT,0.00,WeatherDisplay:10.37,2013-09-28 01:54:00,
2013-09-27 21:00:00,76.6,58.2,29.80,SE,126,8.0,14.0,53,0.00,SCT,SCT,0.00,WeatherDisplay:10.37,2013-09-28 02:00:00,
2013-09-27 21:06:00,76.3,57.9,29.80,ESE,116,3.0,10.0,53,0.00,FEW,FEW,0.00,WeatherDisplay:10.37,2013-09-28 02:06:00,
2013-09-27 21:12:00,76.3,57.9,29.80,SSE,155,5.0,8.0,53,0.00,FEW,FEW,0.00,WeatherDisplay:10.37,2013-09-28 02:12:00,
2013-09-27 21:18:00,76.1,57.7,29.80,ESE,112,8.0,13.0,53,0.00,FEW,FEW,0.00,WeatherDisplay:10.37,2013-09-28 02:18:00,
2013-09-27 21:24:00,76.1,57.7,29.80,ESE,117,6.0,10.0,53,0.00,FEW,FEW,0.00,WeatherDisplay:10.37,2013-09-28 02:24:00,
2013-09-27 21:30:00,76.0,57.6,29.80,ESE,123,5.0,13.0,53,0.00,FEW,FEW,0.00,WeatherDisplay:10.37,2013-09-28 02:30:00,
2013-09-27 21:36:00,75.8,57.9,29.80,SE,131,5.0,7.0,54,0.00,FEW,FEW,0.00,WeatherDisplay:10.37,2013-09-28 02:36:00,
2013-09-27 21:42:00,75.8,57.9,29.80,SE,135,5.0,6.0,54,0.00,FEW,FEW,0.00,WeatherDisplay:10.37,2013-09-28 02:42:00,
2013-09-27 21:48:00,75.8,57.9,29.80,SSE,151,5.0,7.0,54,0.00,FEW,FEW,0.00,WeatherDisplay:10.37,2013-09-28 02:48:00,
2013-09-27 21:54:00,75.6,57.7,29.80,SSE,154,7.0,13.0,54,0.00,FEW,FEW,0.00,WeatherDisplay:10.37,2013-09-28 02:54:00,
2013-09-27 22:00:00,75.8,57.9,29.80,SE,139,8.0,14.0,54,0.00,FEW,FEW,0.00,WeatherDisplay:10.37,2013-09-28 03:00:00,
2013-09-27 22:06:00,75.6,57.7,29.80,ESE,123,6.0,9.0,54,0.00,FEW,FEW,0.00,WeatherDisplay:10.37,2013-09-28 03:06:00,
2013-09-27 22:12:00,75.4,57.6,29.80,ESE,123,5.0,7.0,54,0.00,FEW,FEW,0.00,WeatherDisplay:10.37,2013-09-28 03:12:00,
2013-09-27 22:18:00,75.4,57.6,29.80,SSE,152,6.0,7.0,54,0.00,FEW,FEW,0.00,WeatherDisplay:10.37,2013-09-28 03:18:00,
2013-09-27 22:24:00,75.2,57.9,29.80,SSE,153,6.0,9.0,55,0.00,FEW,FEW,0.00,WeatherDisplay:10.37,2013-09-28 03:24:00,
2013-09-27 22:30:00,75.2,57.9,29.80,SE,128,6.0,9.0,55,0.00,FEW,FEW,0.00,WeatherDisplay:10.37,2013-09-28 03:30:00,
2013-09-27 22:36:00,75.4,58.1,29.81,ESE,112,7.0,12.0,55,0.00,BKN,BKN,0.00,WeatherDisplay:10.37,2013-09-28 03:36:00,
2013-09-27 22:42:00,75.4,58.6,29.81,East,86,7.0,12.0,56,0.00,BKN,BKN,0.00,WeatherDisplay:10.37,2013-09-28 03:42:00,
2013-09-27 22:48:00,75.4,58.6,29.81,ESE,112,7.0,9.0,56,0.00,BKN,BKN,0.00,WeatherDisplay:10.37,2013-09-28 03:48:00,
2013-09-27 22:54:00,75.4,58.6,29.80,South,169,6.0,8.0,56,0.00,BKN,BKN,0.00,WeatherDisplay:10.37,2013-09-28 03:54:00,
2013-09-27 23:00:00,75.4,58.6,29.80,South,188,6.0,13.0,56,0.00,BKN,BKN,0.00,WeatherDisplay:10.37,2013-09-28 04:00:00,
2013-09-27 23:03:00,75.6,58.8,29.81,South,180,5.0,13.0,56,0.00,OVC,OVC,0.00,WeatherDisplay:10.37,2013-09-28 04:03:00,
2013-09-27 23:06:00,75.8,58.9,29.81,SE,143,6.0,14.0,56,0.00,OVC,OVC,0.00,WeatherDisplay:10.37,2013-09-28 04:06:00,
2013-09-27 23:09:00,76.0,59.1,29.81,SE,125,7.0,17.0,56,0.00,OVC,OVC,0.00,WeatherDisplay:10.37,2013-09-28 04:09:00,
2013-09-27 23:15:00,76.0,59.1,29.80,SE,131,6.0,9.0,56,0.00,OVC,OVC,0.00,WeatherDisplay:10.37,2013-09-28 04:15:00,
2013-09-27 23:21:00,76.0,59.1,29.80,South,173,6.0,10.0,56,0.00,OVC,OVC,0.00,WeatherDisplay:10.37,2013-09-28 04:21:00,
2013-09-27 23:27:00,76.0,59.6,29.79,South,179,7.0,19.0,57,0.00,OVC,OVC,0.00,WeatherDisplay:10.37,2013-09-28 04:27:00,
2013-09-27 23:30:00,75.9,59.5,29.79,SSE,165,6.0,12.0,57,0.00,OVC,OVC,0.00,WeatherDisplay:10.37,2013-09-28 04:30:00,
2013-09-27 23:36:00,75.8,59.4,29.79,SE,132,5.0,8.0,57,0.00,OVC,OVC,0.00,WeatherDisplay:10.37,2013-09-28 04:36:00,
2013-09-27 23:42:00,75.8,59.9,29.79,ESE,121,8.0,13.0,58,0.00,OVC,OVC,0.00,WeatherDisplay:10.37,2013-09-28 04:42:00,
2013-09-27 23:48:00,75.8,59.9,29.79,East,87,6.0,13.0,58,0.00,OVC,OVC,0.00,WeatherDisplay:10.37,2013-09-28 04:48:00,
2013-09-27 23:54:00,75.8,59.9,29.79,ESE,116,9.0,13.0,58,0.00,OVC,OVC,0.00,WeatherDisplay:10.37,2013-09-28 04:54:00,